{"data":{"norad_id":64393,"epoch":"2026-09-22T06:55:52.485024Z","epoch_age_seconds":31032,"freshness":"FRESH","line1":"1 64393U 25128A   26265.28880191  .00000122  00000+0  85189-5 0  9991","line2":"2 64393  97.3707  29.9000 0007045 114.1947 246.0026 15.21135875 70693","mean_motion":15.21135875,"eccentricity":0.0007045,"inclination_deg":97.3707,"raan_deg":29.9,"arg_perigee_deg":114.1947,"mean_anomaly_deg":246.0026,"bstar":8.5189e-6,"rev_number":7069,"period_min":94.666099437041,"perigee_km":497.56586615957,"apogee_km":507.2605614108,"semimajor_km":6880.5502137852,"source":"CELESTRAK","updated_at":"2026-09-22T09:00:29.750489Z"}}